Regional Weather Roundup
Issued by NWS

Home | Current Version | Previous Version | Text Only | Print | Product List | Glossary Off
Versions: 1 2 3 4 5 6 7 8 9 10 11 12 13 14 15 16 17 18 19 20 21 22 23 24 25 26 27 28 29 30 31 32 33 34 35 36 37 38 39 40 41 42 43 44 45 46 47 48 49 50

000
ASUS45 KTFX 070410
RWRMT
MONTANA REGIONAL WEATHER ROUNDUP
NATIONAL WEATHER SERVICE GREAT FALLS MT
1000 PM MDT MON JUL 06 2015

NOTE: "FAIR" INDICATES FEW OR NO CLOUDS BELOW 12000 FEET WITH NO
SIGNIFICANT WEATHER AND/OR OBSTRUCTIONS TO VISIBILITY.

MTZ001>007-043-070500-
WEST OF THE DIVIDE

CITY           SKY/WX    TMP DP  RH WIND       PRES   REMARKS
KALISPELL      CLEAR     65  45  48 N5        30.01R
MISSOULA       CLEAR     71  30  21 NW8       30.02S
BUTTE          MOCLDY    71  30  21 CALM      30.17R
MULLAN PASS    MOCLDY    65  37  35 N5        30.18F
DEER LODGE       N/A     66  27  22 W9        30.15R
EUREKA           N/A     72  45  37 SE5       29.98R
HAMILTON         N/A     70  36  28 SE6       30.05R
LIBBY            N/A     72  43  35 SE6       29.98R
PLAINS           N/A     73  46  38 SE1       30.00R
RONAN            N/A     62  52  70 CALM      30.07S
$$

MTZ008-052>055-070500-
SOUTHWEST MONTANA

CITY           SKY/WX    TMP DP  RH WIND       PRES   REMARKS
BOZEMAN        CLEAR     67  49  52 E5        30.10R
DILLON         CLEAR     63  52  67 E8        30.11R
W YELLOWSTONE  CLOUDY    59  54  82 CALM      30.22R
THREE FORKS      N/A     65  52  62 CALM      30.08R
TWIN BRIDGES     N/A     71  47  42 N10       30.08R
$$

MTZ009-010-012-014-046-048-049-054-070500-
EAST SLOPES AND CENTRAL MONTANA

CITY           SKY/WX    TMP DP  RH WIND       PRES   REMARKS
CUT BANK       CLEAR     62  44  51 SE8       30.08S
GREAT FALLS    CLEAR     64  49  57 E7        30.08S
MALMSTROM AFB  CLEAR     62  51  68 NE7       30.09R
HELENA         CLEAR     68  50  52 W7        30.07R
CONRAD           N/A     58  53  83 E2        30.11S
$$

MTZ011-013-016-021-045-047-050-051-070500-
NORTH CENTRAL MONTANA

CITY           SKY/WX    TMP DP  RH WIND       PRES   REMARKS
HAVRE          CLEAR     65  48  54 NE7       30.07S
LEWISTOWN      CLEAR     60  50  69 SE5       30.13S
CHINOOK          N/A     64  48  55 E3        30.07S
FORT BENTON      N/A     66  50  55 NE6       30.07S
$$

MTZ017>020-022>027-061-062-070500-
NORTHEAST MONTANA

CITY           SKY/WX    TMP DP  RH WIND       PRES   REMARKS
GLASGOW        CLEAR     62  44  51 SE7       30.11S
JORDAN           N/A     62  48  60 E6        30.12R
SIDNEY         CLEAR     63  50  63 NE5       30.16R
WOLF POINT     CLEAR     61  51  70 NE3       30.13R
MALTA            N/A     61  47  59 CALM      30.06S
PLENTYWOOD       N/A     55  48  76 E6        30.15S
POPLAR           N/A     61  52  72 E6        30.14R
SCOBEY           N/A     57  44  62 E6        30.13R
$$

MTZ028>42-056>058-070500-
SOUTHCENTRAL AND SOUTHEAST MONTANA

CITY           SKY/WX    TMP DP  RH WIND       PRES   REMARKS
BAKER          CLEAR     57  47  69 E8        30.18R
BILLINGS       PTCLDY    66  51  58 SE12      30.14R
LIVINGSTON     CLEAR     65  49  56 E12       30.13R
MILES CITY     CLEAR     67  47  48 E3        30.12S
EKALAKA          N/A     55  46  71 SE3       30.15S
FORSYTH          N/A     61  48  63 SE5       30.12S
LAUREL           N/A     63  49  60 CALM      30.11R
ROUNDUP          N/A     64  42  44 CALM      30.04S
$$

REGIONAL REPORTS...DAKOTAS

CITY           SKY/WX    TMP DP  RH WIND       PRES   REMARKS
WILLISTON      CLEAR     61  46  57 E5        30.16S
MINOT          CLEAR     54  48  80 CALM      30.16R
DICKINSON      CLEAR     54  50  86 E8        30.17R FOG
BEACH          MOCLDY    54  54 100 E9        30.19R
CROSBY         FAIR      54  52  94 S5        30.16S
BISMARCK       CLEAR     58  50  75 NE5       30.18R
GRAND FORKS    CLEAR     50  46  86 NW5       30.14R
FARGO          CLEAR     53  46  77 N6        30.15R
BUFFALO SD       N/A     60  50  69 E8        30.12R
RAPID CITY     CLOUDY    63  57  81 N5        30.21R
$$

REGIONAL REPORTS...WYOMING/IDAHO/WASHINGTON

CITY           SKY/WX    TMP DP  RH WIND       PRES   REMARKS
GILLETTE       CLEAR     52  49  89 CALM      30.20S
SHERIDAN       PTCLDY    60  53  77 E5        30.17R
BUFFALO WY     PTCLDY    57  53  86 S9        30.22S
CODY           CLOUDY    64  54  68 SE5       30.19S
YELLOWSTONE LA   N/A     52  48  86 CALM      30.33R
IDAHO FALLS    PTCLDY    61  57  87 NW10      30.12R
SALMON         CLEAR     72  37  28 CALM      30.02R
BOISE          PTCLDY    83  51  33 N6        29.94R
SPOKANE        PTCLDY    84  42  22 NE7       29.92R
$$

REGIONAL REPORTS...ALBERTA

CITY           SKY/WX    TMP DP  RH WIND       PRES   REMARKS
EDMONTON       CLEAR     61  45  55 N3        30.03R
CALGARY        LGT RAIN  57  54  88 N18       30.15R
LETHBRIDGE     MOCLDY    61  54  77 SE8       30.02R
MEDICINE HAT   CLEAR     68  45  42 S2        30.03S
WATERTON GATE    N/A     64  43  45 S8          N/A
CARDSTON         N/A     61  50  67 S7          N/A
MILK RIVER       N/A     61  50  67 S8          N/A
ONEFOUR          N/A     59  43  55 E10         N/A
$$

REGIONAL REPORTS...SASKATCHEWAN

CITY           SKY/WX    TMP DP  RH WIND       PRES   REMARKS
SWIFT CURRENT  CLEAR     55  48  76 S10       30.09R
REGINA         PTCLDY    59  46  63 E7        30.13S
SASKATOON      PTCLDY    63  48  59 S10       30.07S
CYPRESS HILLS    N/A     54  41  62 SE6         N/A
VAL MARIE        N/A     57  46  67 S3          N/A
ROCKGLEN         N/A     57  45  62 E9          N/A
ASSINIBOIA       N/A     61  50  67 SW1         N/A
$$



USA.gov is the U.S. government's official web portal to all federal, state and local government web resources and services.